Location: Unspecified
(0.0000°N, 0.0000°E)
Time: 06:13:34
(UTC+00:00)

CERISE - Pass Details

Date: 21 May 2026
Orbit: 458 x 464 km, 98.3° (Epoch: 8 June)

Event Time Altitude Azimuth Distance (km) Brightness Sun altitude
Rises 19:49:11 0° 5° (N) 2,485 9.9 -26.2°
Reaches altitude 10° 19:51:14 10° 1° (N) 1,612 8.9 -26.7°
Enters shadow 19:51:26 11° 0° (N) 1,533 8.8 -26.8°
